#timestamp,LO_Frequency,Hit 
1503525615.1,286047003.6,N
1503525616.0,286047003.6,N
1503525635.8,286047003.1,N
1503525655.6,286047004.1,N
1503525675.5,286047002.1,N
1503525695.3,286047002.2,N
1503525715.1,286047007.6,N
1503525735.9,286047004.6,N
1503525755.7,286047003.7,N
1503525775.5,286047003.9,N
1503525795.4,286047003.0,N
1503525815.2,286047005.9,N
1503525835.0,286047003.2,N
1503525835.9,286047003.2,N
1503525855.8,286047004.3,N
1503525875.6,286047003.2,N
1503525895.4,286047005.4,N
1503525915.2,286047001.4,N
1503525935.1,286047001.6,N
1503525936.0,286047001.6,N
1503525955.8,286046999.8,N
1503525975.6,286047003.2,N
1503525995.5,286047003.7,N
1503526015.3,286047002.9,N
1503526035.1,286047007.2,P
1503526055.9,286047000.0,N
1503526075.7,286047000.2,N
1503526095.5,286047001.2,N
1503526115.4,286047002.1,N
1503526135.2,286047001.4,N
1503526155.0,286046999.8,N
1503526155.9,286046999.8,N
1503526175.8,286046998.9,N
1503526195.6,286046995.8,N
1503526215.4,286046994.9,N
1503526235.3,286046997.2,N
1503526255.1,286046999.3,N
1503526256.0,286046999.3,N
1503526275.8,286046999.6,N
1503526295.7,286046996.9,N
1503526315.5,286046996.8,N
1503526335.3,286046997.8,N
1503526355.1,286046997.4,N
1503526375.9,286046995.2,N
1503526395.7,286046997.6,N
1503526415.5,286046995.9,N
1503526435.4,286046993.6,N
1503526455.2,286046994.1,N
1503526475.0,286046994.8,N
1503526475.9,286046994.8,N
1503526495.8,286046992.1,N
1503526515.6,286046992.2,N
1503526535.4,286046991.8,N
1503526555.3,286046988.6,P
1503526575.1,286046989.2,N
1503526576.0,286046989.2,N
1503526595.8,286046987.1,P
1503526615.7,286046997.2,N
1503526635.5,286046996.1,N
1503526655.3,286046995.8,N
1503526675.2,286046995.2,N
1503526695.9,286046998.2,N
1503526715.7,286047001.1,N
1503526735.6,286046993.3,N
1503526755.4,286046995.7,N
1503526775.2,286046997.8,N
1503526795.1,286046996.8,N
1503526796.0,286046996.8,N
1503526815.8,286046998.7,N
1503526835.6,286046994.9,N
1503526855.4,286046996.8,N
1503526875.3,286046996.9,N
1503526895.1,286046994.9,N
1503526915.8,286046999.6,N
1503526935.7,286047001.1,N
1503526955.5,286047000.5,N
1503526975.3,286047003.9,N
1503526995.2,286047005.9,N
1503527015.9,286047004.7,N
1503527035.7,286047008.4,N
1503527055.6,286047011.3,N
1503527075.4,286047013.4,N
1503527095.2,286047013.1,N
1503527115.1,286047011.8,N
1503527116.0,286047011.8,N
1503527135.8,286047009.9,N
1503527155.6,286047010.2,N
1503527175.4,286047006.1,N
1503527195.3,286047010.1,N
1503527215.1,286047010.3,N
1503527235.8,286047009.3,N
1503527255.7,286047010.6,N
1503527275.5,286047010.8,N
1503527295.3,286047010.2,N
1503527315.2,286047012.0,N
1503527335.9,286047013.6,N
1503527355.7,286047013.8,N
1503527375.6,286047015.6,N
1503527395.4,286047012.8,N
1503527415.2,286047012.5,N
1503527435.1,286047017.1,P
1503527436.0,286047017.1,P
1503527455.8,286047008.2,N
1503527475.6,286047007.2,N
1503527495.5,286047008.3,N
1503527515.3,286047008.6,N
1503527535.1,286047005.8,N
1503527555.9,286047005.2,N
1503527575.7,286047004.7,N
1503527595.5,286047005.7,N
1503527615.4,286047001.9,N
1503527635.2,286047001.9,N
1503527655.0,286047005.6,N
1503527655.9,286047005.6,N
1503527675.7,286047005.5,N
1503527695.6,286047004.6,N
1503527715.4,286047006.5,N
1503527735.2,286047009.2,N
1503527755.1,286047006.1,N
1503527756.0,286047006.1,N
1503527775.8,286047006.8,N
1503527795.6,286047005.0,N
1503527815.5,286047007.1,N
1503527835.3,286047007.4,N
1503527855.1,286047002.9,N
1503527875.9,286047004.2,N
1503527895.7,286047001.5,N
1503527915.5,286047001.4,N
1503527935.4,286047003.5,N
1503527955.2,286047001.9,N
1503527975.0,286047001.7,N
1503527975.9,286047001.7,N
1503527995.8,286047007.5,P
1503528015.6,286047000.0,N
1503528035.4,286047004.4,N
1503528055.3,286046999.7,N
1503528075.1,286047002.8,N
1503528076.0,286047002.8,N
1503528095.8,286047003.6,N
1503528115.7,286047004.3,N
1503528135.5,286047005.5,N
1503528155.3,286047003.3,N
1503528175.2,286047007.5,P
1503528195.9,286047003.1,N
1503528215.7,286047000.6,N
1503528235.6,286046998.3,N
1503528255.4,286046993.7,N
1503528275.2,286046990.6,N
1503528295.0,286046988.7,N
1503528295.9,286046988.7,N
1503528315.8,286046991.6,N
1503528335.6,286046993.0,N
1503528355.4,286046992.3,N
1503528375.3,286046990.4,N
1503528395.1,286046992.9,N
1503528415.8,286046991.4,N
1503528435.7,286046991.3,N
1503528455.5,286046989.5,N
1503528475.3,286046990.6,N
1503528495.2,286046991.2,N
1503528515.9,286046990.1,N
1503528535.7,286046994.1,N
1503528555.6,286046993.0,N
1503528575.4,286046989.0,N
1503528595.2,286046988.4,N
1503528615.0,286046985.4,N
1503528615.9,286046985.4,N
1503528635.8,286046985.8,N
1503528655.6,286046983.9,N
1503528675.4,286046984.5,N
1503528695.3,286046984.3,N
1503528715.1,286046987.9,N
1503528735.8,286046985.4,N
1503528755.7,286046988.3,N
1503528775.5,286046987.4,P
1503528795.3,286046999.6,N
1503528815.2,286047000.4,N
1503528835.9,286046997.7,N
1503528855.7,286046996.5,N
1503528875.6,286046999.0,N
1503528895.4,286046997.0,N
1503528915.2,286046995.0,N
1503528935.1,286046994.8,N
1503528936.0,286046994.8,N
1503528955.8,286046994.2,N
1503528975.6,286046990.9,N
1503528995.5,286046991.1,N
1503529015.3,286046991.8,N
1503529035.1,286046997.6,N
1503529055.8,286046997.0,N
1503529075.7,286046998.6,N
1503529095.5,286047003.9,N
1503529115.3,286047005.0,N
1503529135.2,286047006.1,N
1503529155.9,286047010.3,N
1503529175.7,286047008.3,N
1503529195.6,286047006.5,N
